Stündliche Wetter La Argentina

Heute, 14 Mai, Freitag

Zeit Temperatur Niederschläge Wind Luftdruck Luftfeuchtigkeit
00:00 +16°C° 0 mm 1 m/S 631 mmHg 94%
01:00 +16°C° 0 mm 1 m/S 631 mmHg 94%
02:00 +16°C° 0 mm 1 m/S 631 mmHg 94%
03:00 +16°C° 0 mm 1 m/S 631 mmHg 93%
04:00 +16°C° 0 mm 1 m/S 630 mmHg 93%
05:00 +16°C° 0 mm 1 m/S 631 mmHg 92%
06:00 +18°C° 0 mm 1 m/S 631 mmHg 91%
07:00 +19°C° 0 mm 1 m/S 632 mmHg 90%
08:00 +20°C° 0.1 mm 1 m/S 632 mmHg 84%
09:00 +22°C° 0.1 mm 1 m/S 633 mmHg 77%
10:00 +23°C° 0.1 mm 1 m/S 633 mmHg 71%
11:00 +24°C° 0.5 mm 1 m/S 633 mmHg 70%
12:00 +24°C° 0.5 mm 1 m/S 632 mmHg 69%
13:00 +25°C° 0.5 mm 1 m/S 632 mmHg 69%
14:00 +25°C° 0.6 mm 1 m/S 631 mmHg 72%
15:00 +24°C° 0.6 mm 1 m/S 631 mmHg 76%
16:00 +24°C° 0.6 mm 1 m/S 630 mmHg 79%
17:00 +22°C° 0.6 mm 1 m/S 630 mmHg 85%
18:00 +20°C° 0.6 mm 1 m/S 630 mmHg 90%
19:00 +19°C° 0.6 mm 1 m/S 630 mmHg 95%
20:00 +18°C° 0.3 mm 1 m/S 630 mmHg 96%
21:00 +18°C° 0.3 mm 1 m/S 631 mmHg 96%
22:00 +18°C° 0.3 mm 1 m/S 631 mmHg 96%
23:00 +16°C° 0.1 mm 1 m/S 631 mmHg 96%

Morgen, 15 Mai, Samstag

Zeit Temperatur Niederschläge Wind Luftdruck Luftfeuchtigkeit
00:00 +16°C° 0.1 mm 1 m/S 631 mmHg 96%
01:00 +16°C° 0.1 mm 1 m/S 631 mmHg 96%
02:00 +16°C° 0 mm 1 m/S 630 mmHg 95%
03:00 +16°C° 0 mm 1 m/S 630 mmHg 95%
04:00 +16°C° 0 mm 1 m/S 630 mmHg 95%
05:00 +16°C° 0 mm 1 m/S 631 mmHg 94%
06:00 +18°C° 0 mm 1 m/S 631 mmHg 93%
07:00 +18°C° 0 mm 1 m/S 632 mmHg 92%
08:00 +20°C° 0.1 mm 1 m/S 632 mmHg 86%
09:00 +22°C° 0.1 mm 1 m/S 633 mmHg 80%
10:00 +23°C° 0.1 mm 1 m/S 633 mmHg 74%
11:00 +23°C° 0.5 mm 1 m/S 633 mmHg 76%
12:00 +23°C° 0.5 mm 1 m/S 632 mmHg 77%
13:00 +24°C° 0.5 mm 1 m/S 632 mmHg 78%
14:00 +23°C° 0.6 mm 1 m/S 631 mmHg 82%
15:00 +22°C° 0.6 mm 1 m/S 630 mmHg 87%
16:00 +21°C° 0.6 mm 1 m/S 630 mmHg 91%
17:00 +20°C° 0.3 mm 1 m/S 630 mmHg 93%
18:00 +19°C° 0.3 mm 1 m/S 630 mmHg 95%
19:00 +19°C° 0.3 mm 1 m/S 630 mmHg 97%
20:00 +18°C° 0.1 mm 1 m/S 631 mmHg 96%
21:00 +18°C° 0.1 mm 1 m/S 631 mmHg 96%
22:00 +18°C° 0.1 mm 1 m/S 632 mmHg 96%
23:00 +16°C° 0 mm 1 m/S 631 mmHg 95%

übermorgen, 16 Mai, Sonntag

Zeit Temperatur Niederschläge Wind Luftdruck Luftfeuchtigkeit
00:00 +16°C° 0 mm 1 m/S 631 mmHg 95%
01:00 +16°C° 0 mm 1 m/S 631 mmHg 94%
02:00 +16°C° 0.1 mm 1 m/S 630 mmHg 94%
03:00 +16°C° 0.1 mm 1 m/S 630 mmHg 94%
04:00 +16°C° 0.1 mm 1 m/S 630 mmHg 94%
05:00 +18°C° 0.2 mm 1 m/S 631 mmHg 94%
06:00 +18°C° 0.2 mm 1 m/S 631 mmHg 94%
07:00 +16°C° 0.2 mm 0 m/S 632 mmHg 94%
08:00 +19°C° 0.2 mm 1 m/S 632 mmHg 90%
09:00 +21°C° 0.2 mm 1 m/S 633 mmHg 86%
10:00 +22°C° 0.2 mm 1 m/S 633 mmHg 83%
11:00 +22°C° 0.8 mm 1 m/S 633 mmHg 84%
12:00 +22°C° 0.8 mm 1 m/S 632 mmHg 85%
13:00 +23°C° 0.8 mm 1 m/S 632 mmHg 86%
14:00 +22°C° 0.9 mm 1 m/S 631 mmHg 89%
15:00 +21°C° 0.9 mm 1 m/S 631 mmHg 92%
16:00 +21°C° 0.9 mm 1 m/S 630 mmHg 96%
17:00 +20°C° 0.8 mm 1 m/S 631 mmHg 96%
18:00 +20°C° 0.8 mm 1 m/S 631 mmHg 97%
19:00 +19°C° 0.8 mm 1 m/S 632 mmHg 98%
20:00 +19°C° 0.4 mm 1 m/S 632 mmHg 98%
21:00 +19°C° 0.4 mm 1 m/S 632 mmHg 98%
22:00 +18°C° 0.4 mm 1 m/S 632 mmHg 98%
23:00 +18°C° 0.1 mm 1 m/S 632 mmHg 97%

17 Mai, Montag

Zeit Temperatur Niederschläge Wind Luftdruck Luftfeuchtigkeit
00:00 +18°C° 0.1 mm 1 m/S 632 mmHg 97%
01:00 +18°C° 0.1 mm 1 m/S 631 mmHg 97%
02:00 +18°C° 0.1 mm 1 m/S 631 mmHg 97%
03:00 +18°C° 0.1 mm 1 m/S 631 mmHg 97%
04:00 +18°C° 0.1 mm 1 m/S 631 mmHg 96%
05:00 +18°C° 0 mm 1 m/S 631 mmHg 96%
06:00 +18°C° 0 mm 1 m/S 632 mmHg 96%
07:00 +18°C° 0 mm 1 m/S 632 mmHg 95%
08:00 +19°C° 0.2 mm 1 m/S 632 mmHg 93%
09:00 +20°C° 0.2 mm 1 m/S 633 mmHg 91%
10:00 +21°C° 0.2 mm 1 m/S 633 mmHg 88%
11:00 +21°C° 0.7 mm 1 m/S 633 mmHg 89%
12:00 +21°C° 0.7 mm 1 m/S 632 mmHg 89%
13:00 +21°C° 0.7 mm 1 m/S 632 mmHg 89%
14:00 +21°C° 0.9 mm 1 m/S 632 mmHg 91%
15:00 +21°C° 0.9 mm 1 m/S 631 mmHg 92%
16:00 +21°C° 0.9 mm 1 m/S 631 mmHg 94%
17:00 +20°C° 0.7 mm 1 m/S 631 mmHg 95%
18:00 +19°C° 0.7 mm 1 m/S 631 mmHg 96%
19:00 +19°C° 0.7 mm 1 m/S 632 mmHg 97%
20:00 +18°C° 0.1 mm 1 m/S 632 mmHg 97%
21:00 +18°C° 0.1 mm 1 m/S 632 mmHg 97%
22:00 +18°C° 0.1 mm 1 m/S 633 mmHg 96%
23:00 +18°C° 0.2 mm 1 m/S 632 mmHg 96%

18 Mai, Dienstag

Zeit Temperatur Niederschläge Wind Luftdruck Luftfeuchtigkeit
00:00 +18°C° 0.2 mm 1 m/S 632 mmHg 96%
01:00 +18°C° 0.2 mm 1 m/S 632 mmHg 96%
02:00 +18°C° 0.4 mm 1 m/S 632 mmHg 97%
03:00 +18°C° 0.4 mm 1 m/S 631 mmHg 97%
04:00 +18°C° 0.4 mm 1 m/S 631 mmHg 97%
05:00 +18°C° 0.4 mm 1 m/S 632 mmHg 97%
06:00 +18°C° 0.4 mm 1 m/S 632 mmHg 96%
07:00 +18°C° 0.4 mm 1 m/S 632 mmHg 96%
08:00 +18°C° 0.2 mm 1 m/S 633 mmHg 95%
09:00 +19°C° 0.2 mm 1 m/S 633 mmHg 94%
10:00 +20°C° 0.2 mm 1 m/S 634 mmHg 93%
11:00 +20°C° 0.3 mm 1 m/S 633 mmHg 90%
12:00 +21°C° 0.3 mm 1 m/S 633 mmHg 88%
13:00 +21°C° 0.3 mm 1 m/S 633 mmHg 85%
14:00 +21°C° 0.6 mm 1 m/S 632 mmHg 87%
15:00 +21°C° 0.6 mm 1 m/S 632 mmHg 89%
16:00 +21°C° 0.6 mm 1 m/S 631 mmHg 91%
17:00 +20°C° 0.8 mm 1 m/S 631 mmHg 93%
18:00 +19°C° 0.8 mm 1 m/S 632 mmHg 96%
19:00 +18°C° 0.8 mm 1 m/S 632 mmHg 98%
20:00 +18°C° 0.4 mm 1 m/S 632 mmHg 97%
21:00 +18°C° 0.4 mm 1 m/S 633 mmHg 97%
22:00 +18°C° 0.4 mm 1 m/S 633 mmHg 97%
23:00 +18°C° 0.1 mm 1 m/S 633 mmHg 97%

19 Mai, Mittwoch

Zeit Temperatur Niederschläge Wind Luftdruck Luftfeuchtigkeit
00:00 +16°C° 0.1 mm 1 m/S 632 mmHg 97%
01:00 +16°C° 0.1 mm 1 m/S 632 mmHg 97%
02:00 +16°C° 0 mm 1 m/S 632 mmHg 96%
03:00 +16°C° 0 mm 1 m/S 632 mmHg 96%
04:00 +16°C° 0 mm 1 m/S 632 mmHg 96%
05:00 +16°C° 0.1 mm 1 m/S 632 mmHg 95%
06:00 +18°C° 0.1 mm 1 m/S 632 mmHg 95%
07:00 +18°C° 0.1 mm 1 m/S 633 mmHg 95%
08:00 +19°C° 0.3 mm 1 m/S 633 mmHg 90%
09:00 +21°C° 0.3 mm 1 m/S 634 mmHg 85%
10:00 +22°C° 0.3 mm 1 m/S 634 mmHg 81%
11:00 +23°C° 0.6 mm 1 m/S 634 mmHg 79%
12:00 +23°C° 0.6 mm 1 m/S 633 mmHg 77%
13:00 +24°C° 0.6 mm 1 m/S 633 mmHg 76%
14:00 +24°C° 0.5 mm 1 m/S 632 mmHg 77%
15:00 +23°C° 0.5 mm 1 m/S 631 mmHg 78%
16:00 +23°C° 0.5 mm 1 m/S 631 mmHg 79%
17:00 +22°C° 0.2 mm 1 m/S 631 mmHg 84%
18:00 +20°C° 0.2 mm 1 m/S 631 mmHg 89%
19:00 +19°C° 0.2 mm 1 m/S 631 mmHg 94%
20:00 +19°C° 0 mm 1 m/S 631 mmHg 95%
21:00 +18°C° 0 mm 1 m/S 631 mmHg 95%
22:00 +18°C° 0 mm 1 m/S 632 mmHg 96%
23:00 +18°C° 0 mm 1 m/S 632 mmHg 96%
Mehr zeigen

Wir brauchen deine Erlaubnis

Meteoprog und unser Service Anbieter werden persönliche Daten aufbewahren, so wie Cookies, Geräte Bezeichnung oder ähnliche Technologien von deinem Gerät und Prozess, so wie Persönliche Daten Inhalte und Werbungen, genauso wie social Media und den Verkehr zu analysieren.

  • Aufbewahrung und/oder Zugang zu deiner Geräte Informationen.

    Cookies, Geräte Bezeichnung oder andere Informationen, können aufbewahrt oder Zugang zu deinem Gerät erhalten, für den Grund, der oben angegeben wird.

  • Personalisierte Werbung und Inhalte, Messungen, Einblick in das Publikum und Produkt Entwicklung.

    Werbungen und Inhalte können personalisiert werden, basierend auf ein Profil. Mehr Daten können besser personalisierte Werbungen und Inhalte hinzufügen. Werbung und Inhalte können gezeigt und gemessen werden. Einblicke über das Publikum, welche die Werbung gesehen haben und den Inhalt, können abgeleitet werden. So wie Daten können genutzt werden, um es zu verbessern oder die Benutzer Erfahrung zu verbessern das System und die Software.

Wenn du “Ich stimme zu” klickst, erlaubst du uns, die Cookies zu benutzen die Geräte Bezeichnung, den Web oder ähnliche Technologien zu benutzen. Deine Settings, können in deinem Gerät bei deinem Browser geändert werden.

Für den bestimmten Zweck, berechtigten Interessen beruhen darauf, mehr als auf den Inhalt. Du kannst mehr darüber in unseren Privaten und Cookie Politik lesen.